Starlink 2164

operational
NORAD ID: 47750 Int'l Des: 2021-017 Owner: SPXS Country: US Constellation: starlink
LEOCIRCULARSTARLINK_TYPE

Starlink 2164について

説明を読み込み中...

リアルタイム位置

3D地球を読み込み中...

次回通過

高度履歴

Altitude vs Time

uPlot chart will show altitude changes over time

軌道要素

1 47750U 21017AE 25354.83367987 -.00000445 00000-0 -10981-4 0 9992
2 47750 53.0536 195.6141 0001806 94.4440 265.6756 15.06394981265987
Epoch: Dec 20, 2025 • Age: 10 hours

現在のステータス

高度 547.3 km
速度 7.59 km/s
衛星直下点 23.74°N, 171.05°E
打ち上げ日 Mar 4, 2021
運用期間 4.7 years
タイプ internet

技術仕様

分類 Payload
質量 260.00 kg
乾燥質量 248.00 kg
総質量 260.00 kg
長さ 0.20 m
直径 2.80 m
スパン 9.00 m
形状 Box + pan
製造者 SPXS
バスタイプ Starlink
フェーズステータス In Orbit
所有者/国 SPXS/US

大規模コンステレーション

Loading constellations...